VJT402 KTEB-KBOS

Flight info

Callsign VJT402
Flight time N/A
Altitude 17000
Route BREZY V39 CMK MERIT ROBUC3
Aircraft CL60/M-ICAO/HB1D1

Departure

Time 2026-04-30 22:47
Airport Teterboro Airport (KTEB)

Arrival

Time N/A
Airport Boston Logan International Airport (KBOS)
Time Latitude Longitude Altitude Speed Heading
2026-04-30 22:26 40.84204 -74.06536 11 ft 0 kts 298°
2026-04-30 22:42 40.84206 -74.06538 11 ft 2 kts 323°
2026-04-30 22:43 40.84249 -74.06437 11 ft 10 kts 89°
2026-04-30 22:43 40.84232 -74.06171 11 ft 9 kts 141°
2026-04-30 22:44 40.84058 -74.06170 11 ft 10 kts 175°
2026-04-30 22:45 40.84078 -74.06023 11 ft 0 kts
2026-04-30 22:46 40.84672 -74.05979 12 ft 139 kts
2026-04-30 22:47 40.89972 -74.07055 3681 ft 238 kts 346°
2026-04-30 22:47 40.93325 -74.08042 6597 ft 263 kts 346°
2026-04-30 22:48 40.96953 -74.09002 9643 ft 281 kts 346°
2026-04-30 22:49 41.02920 -74.10434 13854 ft 307 kts 345°
2026-04-30 22:49 41.09592 -74.11947 16732 ft 359 kts 351°
2026-04-30 22:50 41.18165 -74.03973 16966 ft 420 kts 74°
2026-04-30 22:51 41.19825 -73.96185 16927 ft 459 kts 75°
2026-04-30 22:51 41.21632 -73.87820 16972 ft 468 kts 75°
2026-04-30 22:52 41.22524 -73.83695 16974 ft 461 kts 75°
2026-04-30 22:52 41.24222 -73.75868 16987 ft 423 kts 75°
2026-04-30 22:53 41.25848 -73.68360 17008 ft 417 kts 75°
2026-04-30 22:53 41.27475 -73.60835 17015 ft 416 kts 75°
2026-04-30 22:53 41.28285 -73.57126 17015 ft 417 kts 74°
2026-04-30 22:54 41.29994 -73.49695 17016 ft 417 kts 74°
2026-04-30 22:55 41.32549 -73.38575 17026 ft 418 kts 74°
2026-04-30 22:55 41.34251 -73.31140 17019 ft 417 kts 75°
2026-04-30 22:56 41.35944 -73.23725 17016 ft 417 kts 75°
2026-04-30 22:56 41.38375 -73.12537 17020 ft 415 kts 82°
2026-04-30 22:57 41.39205 -73.04909 17007 ft 414 kts 84°
2026-04-30 22:57 41.40018 -72.97302 17013 ft 413 kts 84°
2026-04-30 22:58 41.40827 -72.89703 17003 ft 413 kts 84°
2026-04-30 22:59 41.42028 -72.78357 17006 ft 413 kts 84°
2026-04-30 22:59 41.43227 -72.66931 17000 ft 414 kts 85°